Regional Weather Roundup
Issued by NWS

Home | Current Version | Previous Version | Text Only | Print | Product List | Glossary On
Versions: 1 2 3 4 5 6 7 8 9 10 11 12 13 14 15 16 17 18 19 20 21 22 23 24 25 26 27 28 29 30 31 32 33 34 35 36 37 38 39 40 41 42 43 44 45 46 47 48 49 50
000
ASUS44 KFWD 191710
RWRTX
NORTH TEXAS HOURLY WEATHER ROUNDUP
NATIONAL WEATHER SERVICE FORT WORTH TX
1200 PM CDT TUE SEP 19 2017

NOTE: "FAIR" INDICATES FEW OR NO CLOUDS BELOW 12,000 FEET WITH NO
SIGNIFICANT WEATHER AND/OR OBSTRUCTIONS TO VISIBILITY.

TXZ118-119-191800-
DALLAS/FORT WORTH METROPLEX

CITY           SKY/WX    TMP DP  RH WIND       PRES   REMARKS
DFW AIRPORT    MOSUNNY   88  73  61 S16       29.91F HX  95
DALLAS LOVE    MOSUNNY   88  72  58 S13G18    29.91F HX  94
FTW MEACHAM    MOSUNNY   90  75  61 S14G22    29.91F HX 100
DAL-EXECUTIVE  MOSUNNY   88  73  61 S8        29.92F HX  95
FTW-ALLIANCE   MOSUNNY   89  73  59 S12G18    29.91F HX  97
FTW-NAS-JRB    SUNNY     90  72  55 S13       29.92F HX  97
FTW-SPINKS     MOSUNNY   88  72  58 S12G17    29.95S HX  94
ARLINGTON      PTSUNNY   87  74  64 S15       29.93F HX  95
GRAND PRAIRIE  MOSUNNY   88  72  58 S12G21    29.94F HX  94
ADDISON        MOSUNNY   88  72  58 S10G16    29.93F HX  94
MESQUITE       PTSUNNY   88  72  58 S15       29.93F HX  94
LANCASTER      MOSUNNY   87  72  59 SW15      29.94F HX  93
$$

TXZ091>094-102>105-117-120-121-131>134-191800-
NORTH CENTRAL TEXAS

CITY           SKY/WX    TMP DP  RH WIND       PRES   REMARKS
SHRMAN/DENISON SUNNY     88  72  60 S10G21    29.93F HX  95
GAINESVILLE    MOSUNNY   86  72  61 S15G21    29.92F HX  92
BOWIE          MOSUNNY   88  73  60 S14G22    29.90F HX  95
BRIDGEPORT     SUNNY     88  71  55 S13       29.92F HX  94
DECATUR        SUNNY     88  72  58 S9G18     29.91F HX  95
DENTON         SUNNY     88  74  63 S14       29.91F HX  96
MCKINNEY       MOSUNNY   86  74  67 SW15      29.92F HX  94
BONHAM         SUNNY     86  72  62 S14       29.93F HX  92
GREENVILLE     MOSUNNY   90  72  55 S14       29.94F HX  96
ROCKWALL       MOSUNNY   85  73  65 S15       29.93F HX  91
TERRELL        MOSUNNY   89  71  55 S16       29.93F HX  95
WAXAHACHIE     PTSUNNY   87  73  61 S15G22    29.95S HX  94
CLEBURNE       MOSUNNY   88  75  66 S14G20    29.95F HX  97
GRANBURY       PTSUNNY   91  71  52 SE9G16    29.92F HX  97
$$

TXZ083>090-098>101-113>116-127>130-139>142-154-155-191800-
WESTERN NORTH TEXAS

CITY           SKY/WX    TMP DP  RH WIND       PRES   REMARKS
WICHITA FALLS  SUNNY     90  70  51 S22G31    29.85F HX  95
WF-KICKAPOO    MOSUNNY   88  71  57 S17       29.89S HX  93
VERNON         SUNNY     91  63  39 S16G24    29.85S HX  91
ABILENE        LGT RAIN  88  70  55 S22G29    29.92F HX  93
ABILENE-DYESS  CLOUDY    89  71  54 S23G32    29.90F HX  94
GRAHAM         SUNNY     92  69  47 S14G20    29.88S HX  96
BRECKENRIDGE   SUNNY     92  67  43 SW16G24   29.91S HX  95
CISCO          SUNNY     90  70  51 SW17G25   29.95S HX  95
EASTLAND       MOSUNNY   91  71  51 S15       29.93F HX  96
RANGER         MOSUNNY   86  70  57 SW13G20   29.94F HX  91
MINERAL WELLS  SUNNY     90  71  53 S16       29.90F HX  96
STEPHENVILLE   MOSUNNY   89  70  54 S8        29.97S HX  94
COMANCHE       SUNNY     91  70  49 SW13G21   29.94F HX  96
BROWNWOOD      SUNNY     91  68  46 S10G18    29.94F HX  95
COLEMAN        SUNNY     91  67  45 S17       29.94F HX  94
$$

TXZ143>147-156>162-174-175-191800-
CENTRAL TEXAS

CITY           SKY/WX    TMP DP  RH WIND       PRES   REMARKS
WACO           MOSUNNY   90  72  55 S16       29.94F HX  97
WACO-TSTC      PTSUNNY   91  72  52 S14G23    29.97R HX  98
WACO-MCGREGOR  PTSUNNY   91  73  55 S15       29.94F HX  99
HILLSBORO      PTSUNNY   87  74  63 S14G21    29.95S HX  95
CORSICANA      PTSUNNY   91  71  51 SW17      29.95F HX  97
MEXIA          PTSUNNY   87  72  60 S13G28    29.95F HX  93
HEARNE         MOSUNNY   88  74  63 S9        29.96F HX  97
CAMERON        PTSUNNY   89  74  60 S12G22    29.95F HX  97
TEMPLE         PTSUNNY   90  73  57 S16G24    29.95  HX  98
KILLEEN        MOSUNNY   88  75  66 S10       29.95S HX  97
FORT HOOD      MOSUNNY   86  71  59 S13G22    29.93S HX  91
GATESVILLE     SUNNY     88  70  55 S8G16     29.97S HX  92
HAMILTON       SUNNY     91  69  49 S14G21    29.97S HX  95
LAMPASAS       MOSUNNY   91  76  61 S7G17     29.95F HX 102
$$

TXZ095>097-106>112-122>126-135>138-148>153-164>167-191800-
EAST TEXAS

CITY           SKY/WX    TMP DP  RH WIND       PRES   REMARKS
PARIS          SUNNY     86  74  67 SW13G20   29.95S HX  94
SULPHUR SPRNGS PTSUNNY   86  71  59 S12G17    29.97S HX  91
MOUNT PLEASANT PTSUNNY   84  73  68 SW8       29.97F HX  90
GILMER         PTSUNNY   85  72  65 S10       29.97F HX  91
MINEOLA        CLOUDY    86  73  66 S7        29.95F HX  93
TYLER          MOSUNNY   84  73  69 S12       29.97F HX  90
LONGVIEW       CLOUDY    86  75  69 SW8G20    29.96F HX  95
MARSHALL       CLOUDY    83  74  74 MISG      30.00F HX  90
ATHENS         PTSUNNY   86  70  58 S10G16    29.95S HX  90
PALESTINE      PTSUNNY   84  75  75 S9        29.98S HX  92
JACKSONVILLE   MOSUNNY   83  74  76 SW7       30.01S
HENDERSON      CLOUDY    83  73  71 SW5       29.99S
CENTER         PTSUNNY   87  76  69 S5        30.00S HX  98
NACOGDOCHES    MOSUNNY   86  76  71 S9        29.98F HX  96
LUFKIN         PTSUNNY   85  76  74 SW6       29.98F HX  94
$$

SUPPLEMENTAL OBSERVATIONS (NWS FORT WORTH AREA)

CITY           SKY/WX    TMP DP  RH WIND       PRES   REMARKS
PAT MAYSE LAKE   N/A     82  75  78 SE9         N/A
GREENVILLE       N/A     88  72  58 S10         N/A  HX  94
CEDAR HILL       N/A     90  72  55 S9          N/A  HX  96
POSSUM KINGDOM   N/A     93  70  46 S15         N/A  HX  99
GRANBURY         N/A     90  70  51 SE14        N/A  HX  95
MCGREGOR         N/A     90  70  51 S12G22      N/A  HX  95
TEMPLE           N/A     88  70  55 S14G22      N/A  HX  92
$$

SUPPLEMENTAL OBSERVATIONS (NWS NORMAN AREA)

CITY           SKY/WX    TMP DP  RH WIND       PRES   REMARKS
GOODLETT         N/A     84  63  48 S15       29.84S
ODELL            N/A     89  70  54 S16       29.86F HX  93
CROWELL          N/A     89  67  48 SW16G23   29.86S HX  92
KNOX CITY        N/A     94  61  33 S18       29.86F HX  94
SEYMOUR          N/A     95  66  38 S20       29.85F HX  97
MILLERS CREEK    N/A     91  68  46 S20G26      N/A  HX  95
$$

SUPPLEMENTAL OBSERVATIONS (NWS SAN ANGELO AREA)

CITY           SKY/WX    TMP DP  RH WIND       PRES   REMARKS
WEINERT          N/A     93  69  44 SW20      29.87F HX  98
HASKELL          N/A     92  65  40 S17G26    29.88S HX  93
THROCKMORTON     N/A     93  71  48 S10       29.89F HX  99
STAMFORD         N/A     90  70  51 S20       29.89F HX  95
CLYDE            N/A     90  71  53 S18       29.95S HX  96
HAMBY            N/A     90  68  48 S22         N/A  HX  93
IVIE RESERVOIR   N/A     91  68  46 SW16G25     N/A  HX  95
COLORADO BEND    N/A     90  68  48 S13         N/A  HX  93
$$

SUPPLEMENTAL OBSERVATIONS (NWS SHREVEPORT AREA)

CITY           SKY/WX    TMP DP  RH WIND       PRES   REMARKS
CLARKSVILLE      N/A     88  72  58 SW5G17      N/A  HX  94
TEXARKANA        N/A     81  73  78 S3          N/A
LINDEN           N/A     84  75  74 S3          N/A  HX  92
GILMER           N/A     86  72  62 S5          N/A  HX  92
HENDERSON        N/A     84  75  74 W7          N/A  HX  92
LUFKIN           N/A     88  77  70 MISG        N/A  HX 100
N SABINE NF      N/A     88  77  70 MISG        N/A  HX 100
S SABINE NF      N/A     88  75  66 S3          N/A  HX  97
$$

SUPPLEMENTAL OBSERVATIONS ARE A COLLECTION OF AUTOMATED INSTRUMENTS
THAT ARE MAINTAINED BY A VARIETY OF FEDERAL AND STATE AGENCIES.
CERTAIN ELEMENTS...SUCH AS HUMIDITY VALUES AND SUSTAINED WIND
SPEEDS...MAY BE APPROXIMATED.





USA.gov is the U.S. government's official web portal to all federal, state and local government web resources and services.